When you browse on this site, cookies collect data to enhance your experience and personalize the content and advertising you see.
Visit our Privacy Policy to learn more. By continuing to use the site, you agree to this use of cookies and data.
  • In Hungary
  • List of Countries
  • For 7 days
  • Water Temperature
  • Satellite Maps
  • Weather Map
  • News
  • Weather Widgets
  • user-avatar
    Login

    Hourly Weather Mikołów

    Today, 20 February, Wednesday

    Time Temperature Precipitation Wind Pressure Humidity
    00:00 +4°C° 0.1 mm 3 mps 734 mmHg 85%
    01:00 +4°C° 0 mm 2 mps 734 mmHg 88%
    02:00 +3°C° 0 mm 2 mps 734 mmHg 88%
    03:00 +2°C° 0 mm 3 mps 734 mmHg 88%
    04:00 +2°C° 0 mm 3 mps 735 mmHg 88%
    05:00 +1°C° 0 mm 3 mps 735 mmHg 87%
    06:00 +1°C° 0 mm 3 mps 735 mmHg 87%
    07:00 +1°C° 0 mm 3 mps 735 mmHg 88%
    08:00 +1°C° 0.1 mm 4 mps 736 mmHg 81%
    09:00 +3°C° 0.1 mm 4 mps 736 mmHg 75%
    10:00 +5°C° 0.1 mm 5 mps 736 mmHg 69%
    11:00 +5°C° 0.1 mm 5 mps 737 mmHg 64%
    12:00 +6°C° 0.1 mm 5 mps 737 mmHg 60%
    13:00 +6°C° 0.1 mm 5 mps 737 mmHg 55%
    14:00 +6°C° 0.1 mm 5 mps 737 mmHg 55%
    15:00 +6°C° 0.1 mm 4 mps 737 mmHg 56%
    16:00 +6°C° 0.1 mm 4 mps 737 mmHg 57%
    17:00 +6°C° 0 mm 4 mps 737 mmHg 60%
    18:00 +5°C° 0 mm 3 mps 738 mmHg 64%
    19:00 +4°C° 0 mm 3 mps 738 mmHg 67%
    20:00 +4°C° 0 mm 3 mps 738 mmHg 71%
    21:00 +3°C° 0 mm 3 mps 739 mmHg 74%
    22:00 +3°C° 0 mm 3 mps 739 mmHg 78%
    23:00 +3°C° 0 mm 2 mps 739 mmHg 80%

    Tomorrow, 21 February, Thursday

    Time Temperature Precipitation Wind Pressure Humidity
    00:00 +3°C° 0 mm 2 mps 739 mmHg 82%
    01:00 +2°C° 0 mm 2 mps 739 mmHg 85%
    02:00 +2°C° 0 mm 2 mps 739 mmHg 84%
    03:00 +2°C° 0 mm 2 mps 739 mmHg 84%
    04:00 +2°C° 0 mm 2 mps 739 mmHg 84%
    05:00 +2°C° 0 mm 2 mps 740 mmHg 83%
    06:00 +2°C° 0 mm 2 mps 740 mmHg 82%
    07:00 +3°C° 0 mm 2 mps 740 mmHg 80%
    08:00 +2°C° 0 mm 3 mps 740 mmHg 77%
    09:00 +3°C° 0 mm 3 mps 740 mmHg 74%
    10:00 +4°C° 0 mm 3 mps 740 mmHg 70%
    11:00 +5°C° 0 mm 3 mps 739 mmHg 68%
    12:00 +5°C° 0 mm 3 mps 739 mmHg 66%
    13:00 +7°C° 0 mm 3 mps 739 mmHg 64%
    14:00 +7°C° 0.1 mm 3 mps 738 mmHg 65%
    15:00 +7°C° 0.1 mm 3 mps 738 mmHg 66%
    16:00 +7°C° 0.1 mm 3 mps 738 mmHg 67%
    17:00 +7°C° 0.7 mm 3 mps 738 mmHg 72%
    18:00 +5°C° 0.7 mm 4 mps 738 mmHg 77%
    19:00 +4°C° 0.7 mm 4 mps 738 mmHg 81%
    20:00 +5°C° 0.2 mm 4 mps 737 mmHg 80%
    21:00 +5°C° 0.2 mm 4 mps 737 mmHg 79%
    22:00 +5°C° 0.2 mm 4 mps 737 mmHg 78%
    23:00 +5°C° 0.7 mm 4 mps 736 mmHg 81%

    Day after tomorrow, 22 February, Friday

    Time Temperature Precipitation Wind Pressure Humidity
    00:00 +5°C° 0.7 mm 4 mps 736 mmHg 84%
    01:00 +4°C° 0.7 mm 4 mps 736 mmHg 87%
    02:00 +4°C° 1 mm 4 mps 735 mmHg 89%
    03:00 +5°C° 1 mm 5 mps 735 mmHg 91%
    04:00 +5°C° 1 mm 5 mps 735 mmHg 92%
    05:00 +5°C° 0.8 mm 5 mps 735 mmHg 91%
    06:00 +5°C° 0.8 mm 5 mps 736 mmHg 90%
    07:00 +5°C° 0.8 mm 5 mps 736 mmHg 88%
    08:00 +3°C° 0.2 mm 5 mps 737 mmHg 83%
    09:00 +2°C° 0.2 mm 6 mps 739 mmHg 78%
    10:00 +1°C° 0.2 mm 6 mps 740 mmHg 72%
    11:00 -1°C° 0 mm 6 mps 741 mmHg 68%
    12:00 -1°C° 0 mm 6 mps 742 mmHg 64%
    13:00 -1°C° 0 mm 6 mps 743 mmHg 60%
    14:00 -1°C° 0 mm 5 mps 743 mmHg 56%
    15:00 -1°C° 0 mm 5 mps 744 mmHg 53%
    16:00 -1°C° 0 mm 5 mps 744 mmHg 50%
    17:00 -2°C° 0 mm 5 mps 745 mmHg 51%
    18:00 -4°C° 0 mm 5 mps 746 mmHg 51%
    19:00 -4°C° 0 mm 4 mps 746 mmHg 51%
    20:00 -4°C° 0 mm 4 mps 747 mmHg 51%
    21:00 -5°C° 0 mm 4 mps 747 mmHg 50%
    22:00 -5°C° 0 mm 4 mps 748 mmHg 49%
    23:00 -5°C° 0 mm 4 mps 748 mmHg 47%

    23 February, Saturday

    Time Temperature Precipitation Wind Pressure Humidity
    00:00 -5°C° 0 mm 4 mps 749 mmHg 46%
    01:00 -7°C° 0 mm 4 mps 749 mmHg 44%
    02:00 -7°C° 0 mm 4 mps 749 mmHg 43%
    03:00 -6°C° 0 mm 3 mps 749 mmHg 41%
    04:00 -6°C° 0 mm 3 mps 749 mmHg 39%
    05:00 -6°C° 0 mm 3 mps 749 mmHg 39%
    06:00 -6°C° 0 mm 3 mps 750 mmHg 38%
    07:00 -6°C° 0 mm 3 mps 750 mmHg 38%
    08:00 -6°C° 0 mm 3 mps 750 mmHg 36%
    09:00 -5°C° 0 mm 3 mps 751 mmHg 34%
    10:00 -5°C° 0 mm 3 mps 751 mmHg 32%
    11:00 -4°C° 0 mm 3 mps 751 mmHg 30%
    12:00 -2°C° 0 mm 3 mps 751 mmHg 28%
    13:00 -2°C° 0 mm 2 mps 750 mmHg 26%
    14:00 -2°C° 0 mm 2 mps 750 mmHg 26%
    15:00 -2°C° 0 mm 2 mps 750 mmHg 27%
    16:00 -2°C° 0 mm 3 mps 750 mmHg 28%
    17:00 -2°C° 0 mm 2 mps 750 mmHg 30%
    18:00 -3°C° 0 mm 2 mps 750 mmHg 33%
    19:00 -4°C° 0 mm 2 mps 750 mmHg 35%
    20:00 -2°C° 0 mm 1 mps 750 mmHg 35%
    21:00 -2°C° 0 mm 1 mps 750 mmHg 36%
    22:00 -2°C° 0 mm 1 mps 750 mmHg 36%
    23:00 -2°C° 0 mm 1 mps 750 mmHg 36%

    24 February, Sunday

    Time Temperature Precipitation Wind Pressure Humidity
    00:00 -3°C° 0 mm 0 mps 750 mmHg 36%
    01:00 -3°C° 0 mm 0 mps 750 mmHg 36%
    02:00 -3°C° 0 mm 0 mps 749 mmHg 36%
    03:00 -3°C° 0 mm 0 mps 749 mmHg 37%
    04:00 -3°C° 0 mm 0 mps 749 mmHg 37%
    05:00 -3°C° 0 mm 0 mps 749 mmHg 37%
    06:00 -3°C° 0 mm 0 mps 749 mmHg 37%
    07:00 -3°C° 0 mm 0 mps 749 mmHg 37%
    08:00 -2°C° 0 mm 0 mps 749 mmHg 33%
    09:00 -1°C° 0 mm 0 mps 749 mmHg 30%
    10:00 0°C° 0 mm 0 mps 749 mmHg 26%
    11:00 +1°C° 0 mm 1 mps 749 mmHg 26%
    12:00 +2°C° 0 mm 1 mps 748 mmHg 26%
    13:00 +2°C° 0 mm 1 mps 748 mmHg 26%
    14:00 +2°C° 0 mm 1 mps 748 mmHg 29%
    15:00 +2°C° 0 mm 1 mps 748 mmHg 31%
    16:00 +2°C° 0 mm 1 mps 747 mmHg 34%
    17:00 +2°C° 0 mm 1 mps 747 mmHg 37%
    18:00 +1°C° 0 mm 1 mps 747 mmHg 39%
    19:00 0°C° 0 mm 1 mps 748 mmHg 41%
    20:00 0°C° 0 mm 1 mps 748 mmHg 42%
    21:00 0°C° 0 mm 1 mps 748 mmHg 43%
    22:00 0°C° 0 mm 1 mps 748 mmHg 44%
    23:00 0°C° 0 mm 1 mps 748 mmHg 44%

    25 February, Monday

    Time Temperature Precipitation Wind Pressure Humidity
    00:00 0°C° 0 mm 1 mps 748 mmHg 44%
    01:00 0°C° 0 mm 1 mps 748 mmHg 45%
    02:00 0°C° 0 mm 1 mps 747 mmHg 46%
    03:00 0°C° 0 mm 1 mps 747 mmHg 47%
    04:00 0°C° 0 mm 1 mps 747 mmHg 48%
    05:00 -2°C° 0 mm 2 mps 747 mmHg 50%
    06:00 -2°C° 0 mm 2 mps 747 mmHg 52%
    07:00 -2°C° 0 mm 2 mps 746 mmHg 55%
    08:00 -1°C° 0 mm 2 mps 746 mmHg 56%
    09:00 +1°C° 0 mm 2 mps 746 mmHg 57%
    10:00 +1°C° 0 mm 3 mps 746 mmHg 59%
    11:00 +2°C° 0 mm 3 mps 746 mmHg 60%
    12:00 +3°C° 0 mm 3 mps 746 mmHg 62%
    13:00 +4°C° 0 mm 3 mps 746 mmHg 63%
    14:00 +4°C° 0 mm 3 mps 746 mmHg 68%
    15:00 +4°C° 0 mm 3 mps 746 mmHg 72%
    16:00 +4°C° 0 mm 3 mps 745 mmHg 77%
    17:00 +4°C° 0 mm 2 mps 746 mmHg 80%
    18:00 +3°C° 0 mm 2 mps 746 mmHg 83%
    19:00 +2°C° 0 mm 2 mps 747 mmHg 87%
    20:00 +2°C° 0 mm 2 mps 747 mmHg 88%
    21:00 +1°C° 0 mm 2 mps 747 mmHg 89%
    22:00 +1°C° 0 mm 2 mps 747 mmHg 91%
    23:00 +1°C° 0 mm 1 mps 747 mmHg 91%
    Show more